Weather History for Davenport, IA

Change the Weather History Date:

Friday, May 10, 2013

  Actual Average Record
Temperature  
Mean Temperature 52 °F 59 °F  
Max Temperature 60 °F 70 °F 94 °F (2011)
Min Temperature 44 °F 48 °F 34 °F (1997)
Degree Days  
Heating Degree Days 13 7  
Month to date heating degree days 63 85  
Since 1 July heating degree days 6447 6389  
Cooling Degree Days 0 1  
Month to date cooling degree days 4 9  
Year to date cooling degree days 14 15  
Growing Degree Days 3 (Base 50)    
Moisture  
Dew Point 48 °F    
Average Humidity 83    
Maximum Humidity 93    
Minimum Humidity 72    
Precipitation  
Precipitation 0.07 in 0.13 in 2.07 in (1951)
Month to date precipitation 2.36 1.25  
Year to date precipitation 14.81 9.81  
Snow  
Snow 0.00 in - - ()
Month to date snowfall 0.0  
Since 1 July snowfall 27.1  
Snow Depth 0.00 in    
Sea Level Pressure  
Sea Level Pressure 29.93 in    
Wind  
Wind Speed 10 mph (NNE)    
Max Wind Speed 20 mph    
Max Gust Speed 24 mph    
Visibility 8 miles    
Events Rain    
T = Trace of Precipitation, MM = Missing Value Source: NWS Daily Summary

Daily Weather History Graph

Daily Weather History Graph

Search for Another Location

Airport:

Trip Planner

Search our weather history database for the weather conditions in past years. The results will help you decide how hot, cold, wet, or windy it might be!

Date:

Astronomy

May. 10, 2013 Rise Set
Actual Time 5:47 AM CDT 8:10 PM CDT
Civil Twilight 5:16 AM CDT 8:41 PM CDT
Nautical Twilight 4:38 AM CDT 9:20 PM CDT
Astronomical Twilight 3:55 AM CDT 10:03 PM CDT
Moon 6:12 AM CDT (5/10) 9:00 PM CDT (5/10)
Length of Visible Light 15h 24m
Length of Day
14h 22m
New Moon, 0% of the Moon is Illuminated
May 10
New Moon
May 17
First Quarter
May 24
Full
May 31
Last Quarter
Jun 8
New

Hourly Weather History & Observations

Time (CDT) Temp. Dew Point Humidity Pressure Visibility Wind Dir Wind Speed Gust Speed Precip Events Conditions
12:04 AM 59.0 °F 57.2 °F 94% 29.81 in 4.0 mi West 5.8 mph - N/A   Mostly Cloudy
12:42 AM 59.0 °F 57.2 °F 94% 29.81 in 4.0 mi NW 8.1 mph - N/A   Mostly Cloudy
12:52 AM 60.1 °F 57.9 °F 93% 29.81 in 5.0 mi WNW 8.1 mph - N/A   Mostly Cloudy
12:59 AM 59.0 °F 57.2 °F 94% 29.82 in 4.0 mi WNW 9.2 mph - N/A   Mostly Cloudy
1:10 AM 59.0 °F 57.2 °F 94% 29.81 in 4.0 mi WNW 9.2 mph - N/A   Mostly Cloudy
1:21 AM 59.0 °F 57.2 °F 94% 29.82 in 4.0 mi WNW 6.9 mph - N/A   Mostly Cloudy
1:52 AM 59.0 °F 57.0 °F 93% 29.81 in 2.0 mi North 11.5 mph - N/A   Overcast
2:07 AM 57.2 °F 55.4 °F 94% 29.83 in 4.0 mi North 16.1 mph - N/A   Overcast
3:52 AM 51.1 °F 48.9 °F 92% 29.86 in 8.0 mi NNE 16.1 mph - N/A   Overcast
4:52 AM 51.1 °F 48.9 °F 92% 29.87 in 3.0 mi NNE 15.0 mph - N/A   Overcast
5:19 AM 50.0 °F 48.2 °F 94% 29.88 in 2.0 mi NNE 12.7 mph - 0.03 in Rain Rain
5:31 AM 48.2 °F 46.4 °F 93% 29.88 in 1.2 mi NNE 17.3 mph 21.9 mph 0.06 in Rain Rain
5:42 AM 48.2 °F 46.4 °F 93% 29.88 in 2.5 mi NNE 16.1 mph - 0.07 in Rain Light Rain
5:49 AM 48.2 °F 46.4 °F 93% 29.88 in 3.0 mi NNE 15.0 mph - 0.07 in Rain Light Rain
5:52 AM 48.9 °F 46.9 °F 93% 29.88 in 3.0 mi NNE 13.8 mph - 0.07 in Rain Light Rain
5:54 AM 48.2 °F 46.4 °F 93% 29.88 in 4.0 mi NNE 12.7 mph - 0.00 in Rain Light Rain
6:52 AM 48.0 °F 45.0 °F 89% 29.92 in 10.0 mi North 17.3 mph - 0.00 in   Overcast
7:01 AM 48.2 °F 44.6 °F 87% 29.92 in 10.0 mi North 15.0 mph - N/A   Overcast
7:16 AM 48.2 °F 44.6 °F 87% 29.92 in 10.0 mi NNE 17.3 mph - N/A   Overcast
7:25 AM 48.2 °F 44.6 °F 87% 29.92 in 10.0 mi NNE 12.7 mph - N/A   Overcast
7:52 AM 48.0 °F 45.0 °F 89% 29.94 in 10.0 mi North 12.7 mph - N/A   Overcast
8:22 AM 48.2 °F 44.6 °F 87% 29.93 in 10.0 mi NNE 13.8 mph - N/A   Overcast
8:52 AM 48.0 °F 44.1 °F 86% 29.95 in 9.0 mi North 16.1 mph - N/A   Overcast
9:01 AM 48.2 °F 44.6 °F 87% 29.94 in 9.0 mi North 13.8 mph - N/A   Overcast
9:52 AM 48.9 °F 44.1 °F 83% 29.96 in 10.0 mi NNE 13.8 mph - N/A   Overcast
10:52 AM 50.0 °F 45.0 °F 83% 29.98 in 10.0 mi North 12.7 mph - N/A   Overcast
11:38 AM 50.0 °F 44.6 °F 82% 29.99 in 10.0 mi NE 10.4 mph - N/A   Overcast
11:52 AM 50.0 °F 44.1 °F 80% 29.99 in 10.0 mi NNE 9.2 mph - N/A   Overcast
12:05 PM 50.0 °F 44.6 °F 82% 29.99 in 10.0 mi North 15.0 mph - N/A   Overcast
12:52 PM 51.1 °F 45.0 °F 80% 29.99 in 10.0 mi NNE 11.5 mph - N/A   Overcast
1:52 PM 52.0 °F 46.0 °F 80% 29.98 in 10.0 mi NNE 12.7 mph - N/A   Overcast
2:00 PM 51.8 °F 46.4 °F 82% 29.99 in 10.0 mi North 11.5 mph - N/A   Overcast
2:43 PM 51.8 °F 46.4 °F 82% 29.98 in 10.0 mi North 9.2 mph - N/A   Overcast
2:52 PM 52.0 °F 46.0 °F 80% 30.00 in 10.0 mi NNE 9.2 mph - N/A   Overcast
3:00 PM 53.6 °F 46.4 °F 77% 29.98 in 9.0 mi NNE 10.4 mph - N/A   Overcast
3:52 PM 53.1 °F 46.9 °F 80% 29.98 in 10.0 mi North 9.2 mph - N/A   Overcast
4:52 PM 54.0 °F 46.9 °F 77% 29.99 in 10.0 mi North 9.2 mph - N/A   Overcast
5:52 PM 55.0 °F 46.9 °F 74% 29.99 in 10.0 mi NNE 10.4 mph - N/A   Overcast
6:52 PM 55.0 °F 48.0 °F 77% 29.99 in 10.0 mi NNE 4.6 mph - N/A   Overcast
7:35 PM 53.6 °F 48.2 °F 82% 29.98 in 10.0 mi Calm Calm - N/A   Mostly Cloudy
7:52 PM 54.0 °F 48.0 °F 80% 30.01 in 10.0 mi Calm Calm - N/A   Overcast
8:52 PM 52.0 °F 48.0 °F 86% 30.00 in 10.0 mi East 3.5 mph - N/A   Overcast
9:17 PM 51.8 °F 48.2 °F 88% 30.00 in 10.0 mi ESE 4.6 mph - N/A   Overcast
9:52 PM 52.0 °F 46.9 °F 83% 30.01 in 10.0 mi East 3.5 mph - N/A   Scattered Clouds
10:52 PM 46.9 °F 45.0 °F 93% 30.00 in 8.0 mi ESE 4.6 mph - N/A   Clear
11:52 PM 46.9 °F 45.0 °F 93% 30.01 in 5.0 mi WSW 3.5 mph - N/A   Clear